Tracking 25612 objects as of 19-May-2022
HD Live streaming from Space Station
objects crossing your sky now

COSMOS 2251 DEB

Track COSMOS 2251 DEB now!
10-day predictions


NORAD ID: 35614
Int'l Code: 1993-036ANH
Perigee: 660.2 km
Apogee: 801.8 km
Inclination: 74.0 °
Period: 99.3 minutes
Semi major axis: 7101 km
RCS: 0.0173 m2 (small)
Launch date: June 16, 1993
Source: Commonwealth of Independent States (former USSR) (CIS)
Launch site: PLESETSK MISSILE AND SPACE COMPLEX (PKMTR)

Note: This is SATELLITE DEBRIS
aabbcc
Your satellite tracking list
Your tracking list is empty




NASA's NSSDC Master Catalog

Two Line Element Set (TLE):
1 35614U 93036ANH 22138.17455774  .00004259  00000-0  10261-2 0  9998
2 35614  73.9632 297.6647 0099703  92.6573 268.6005 14.50551258687264
Source of the keplerian elements: AFSPC